Showing default

FGN-100-D3, 68464

Orbit data source: Space-Track

FGN-100-D3, 68464 is a Turkish payload satellite in SSO that was launched on Mon, 30 Mar 2026 UTC via an FALCON 9 launch vehicle from the Air Force Western Test Range (AFWTR). Payload-class satellites include a variety of spacecraft equipped with specific instruments for various scientific and technological missions. These include communications satellites like Starlink; space stations such as the ISS; scientific satellites like the Hubble; Earth observation satellites from companies like Planet Labs, Umbra, and HawkEye 360; GPS; miniature CubeSats for education and research; and military/defense satellites.

Loading next visibility...
Identifier
68464, 2026-067BA
Orbit
SSO
Country
Flag of TRTR / TURK
Related business
None
Manufacturer
Unknown
Mission
Operational spacecraft
Bus & Motor
Unknown
Mass
Unknown
Launch date (UTC)
2026-03-30 (1 month ago)
Launch vehicle
FALCON 9
Launch site
Air Force Western Test Range (AFWTR)
Object type
Payload
Rocket body
Debris
Shape & HBR
Unknown shape, 1.1 m
Radar Cross Section
RCS unknown

Expand to show TLE details & history
Last TLE update: 14 hours ago

TLE from 14 hours ago
0 FGN-100-D3
1 68464U 26067BA  26127.15793478  .00004384  00000-0  22226-3 0  9997
2 68464  97.4501  86.1824 0002535 185.2991 174.8216 15.17469014  5715
Epoch: 2026-05-07T03:47Z
TLE epoch observation values (Epoch: 2026-05-07T03:47:25.564Z)
Latitude
-0.00002°
Longitude
164.31779°
Altitude
518.319 km
Speed
7.603 km/s
True Right ascension
05h 44m 43s
True Declination
0° 00' 00"
Sunlit
Object was in daylight at epoch
Visualization orbit readout
Latitude
Unknown
Longitude
Unknown
Altitude
Unknown
Speed
Unknown
Apparent Right ascension
Unknown
Apparent Declination
Unknown
Sunlit
N/A
Visualization observer readout
Local Sidereal Time
01:57:49
Azimuth
Unknown
Elevation
Unknown
Doppler factor
Unknown
Orbital elements
Apogee altitude
512.21 km
Perigee altitude
508.718 km
Semi-major axis
6,888.601 km
Eccentricity
0.00025
Inclination
97.4501°
RAAN
86.1824°
Arg. of periapsis
185.2991°
True anomaly
174.82422°
Mean anomaly
174.8216°
Eccentric anomaly
174.82291°
Mean motion
3.79618 °/min
Orbital period
94.83 mins
BSTAR
0.00022226
Loading maneuver chart data...
Computing Atmospheric mass density...
Loading historical data...
Loading historical data...
Loading historical data...
Loading historical data...
Loading historical data...
Loading historical data...
Loading historical data...

Documentation

Showing up to 5 results
|